N3WR Weather Reports


Display with metric or nautical units.
time (UTC)temp
F
wind
direction
speed
MPH
gust
MPH
rain 1hr
in
rain 24hr
in
rain mn
in
humidity
%
barometer
mb
20260504190000 69 218 8.0 17.0 0.00 0.00 0.00 47 1009.4
20260504184459 69 194 8.0 19.0 0.00 0.00 0.00 46 1009.6
20260504182958 69 207 8.0 20.0 0.00 0.00 0.00 46 1009.8
20260504181459 68 240 8.0 17.0 0.00 0.00 0.00 48 1009.9
20260504180000 68 193 8.0 18.0 0.00 0.00 0.00 48 1010.1
20260504174459 68 203 7.0 16.0 0.00 0.00 0.00 47 1010.1
20260504173003 67 292 7.0 15.0 0.00 0.00 0.00 49 1010.3
20260504171500 67 224 6.0 12.0 0.00 0.00 0.00 49 1010.8
20260504081458 45 247 2.0 5.0 0.00 0.00 0.00 65 1013.3
20260504050007 46 238 2.0 4.0 0.00 0.00 0.00 63 1013.0
20260504044503 47 250 2.0 4.0 0.00 0.00 0.00 62 1013.1
20260504043013 47 244 2.0 5.0 0.00 0.00 0.00 60 1013.2
20260504041510 48 220 2.0 4.0 0.00 0.00 0.00 60 1013.2
20260504040004 48 202 2.0 3.0 0.00 0.00 0.00 59 1012.7
20260504034505 48 194 2.0 4.0 0.00 0.00 0.00 58 1012.6
20260504033001 49 201 3.0 5.0 0.00 0.00 0.00 58 1012.5
20260504031501 49 193 3.0 4.0 0.00 0.00 0.00 57 1012.4
20260504030006 50 208 3.0 4.0 0.00 0.00 0.00 55 1012.5
20260504024502 50 200 3.0 5.0 0.00 0.00 0.00 56 1012.5
20260504023008 50 186 3.0 5.0 0.00 0.00 0.00 55 1012.5
20260504021504 50 199 3.0 5.0 0.00 0.00 0.00 54 1012.6
20260504020005 51 201 2.0 4.0 0.00 0.00 0.00 54 1012.6
20260504014459 51 200 2.0 4.0 0.00 0.00 0.00 53 1012.6
20260504013000 50 219 2.0 3.0 0.00 0.00 0.00 55 1012.6
20260504011500 51 252 2.0 4.0 0.00 0.00 0.00 53 1012.2
20260504010001 51 248 2.0 5.0 0.00 0.00 0.00 52 1012.1
20260504004459 52 236 2.0 4.0 0.00 0.00 0.00 51 1011.9
20260504003003 53 239 2.0 4.0 0.00 0.00 0.00 51 1011.6
20260504001500 54 243 2.0 5.0 0.00 0.00 0.00 49 1011.4
20260504000005 54 254 3.0 6.0 0.00 0.00 0.00 47 1011.3
20260503234502 56 266 3.0 7.0 0.00 0.00 0.00 46 1011.3
20260503233000 57 309 3.0 9.0 0.00 0.00 0.00 44 1011.0
20260503231500 58 244 6.0 14.0 0.00 0.00 0.00 41 1011.0
20260503230006 59 287 6.0 11.0 0.00 0.00 0.00 40 1011.0
20260503224500 59 283 5.0 10.0 0.00 0.00 0.00 41 1011.0
20260503222959 60 257 5.0 10.0 0.00 0.00 0.00 43 1011.0
20260503221459 60 271 6.0 12.0 0.00 0.00 0.00 40 1011.0
20260503220003 60 279 5.0 12.0 0.00 0.00 0.00 43 1011.1
20260503214501 59 252 6.0 12.0 0.00 0.00 0.00 41 1010.9
20260503212959 59 246 6.0 14.0 0.00 0.00 0.00 41 1010.7
20260503211458 58 290 6.0 13.0 0.00 0.00 0.00 42 1010.7
20260503210003 57 300 6.0 15.0 0.00 0.00 0.00 42 1010.7
20260503204459 58 298 5.0 12.0 0.00 0.00 0.00 40 1010.7
20260503203001 58 344 6.0 15.0 0.00 0.00 0.00 41 1010.9
20260503201459 58 355 8.0 16.0 0.00 0.00 0.00 39 1011.1
20260503200000 58 250 6.0 15.0 0.00 0.00 0.00 39 1011.2
20260503194459 57 348 7.0 14.0 0.00 0.00 0.00 40 1011.2
20260503192959 57 329 9.0 20.0 0.00 0.00 0.00 39 1011.5
20260503191459 57 266 6.0 11.0 0.00 0.00 0.00 40 1011.7